Mineral Point, WI

5:39 AM CDT on May 26, 2017 (GMT -0500)
Iowa County

Weather History for KMRJ - March, 2014

Change the Weather History Date:

Thursday, March 27, 2014

  Actual Average (KLNR) Record (KLNR)
Temperature  
Mean Temperature 40 °F -  
Max Temperature 46 °F 49 °F 75 °F (1997)
Min Temperature 33 °F 30 °F 18 °F (2002)
Degree Days  
Heating Degree Days 26    
Moisture  
Dew Point 35 °F    
Average Humidity 85    
Maximum Humidity 100    
Minimum Humidity 45    
Precipitation  
Precipitation 0.23 in - - ()
Sea Level Pressure  
Sea Level Pressure 29.57 in    
Wind  
Wind Speed 14 mph (SSE)    
Max Wind Speed 21 mph    
Max Gust Speed 29 mph    
Visibility 4 miles    
Events Rain , Snow    
Averages and records for this station are not official NWS values.
T = Trace of Precipitation, MM = Missing Value Source: NWS Daily Summary

Daily Weather History Graph

Daily Weather History Graph

Search for Another Location

Airport or City:

Trip Planner

Search our weather history database for the weather conditions in past years. The results will help you decide how hot, cold, wet, or windy it might be!

Date:

Astronomy

Mar. 27, 2014 Rise Set
Actual Time 6:51 AM CDT 7:21 PM CDT
Civil Twilight 6:23 AM CDT 7:49 PM CDT
Nautical Twilight 5:49 AM CDT 8:23 PM CDT
Astronomical Twilight 5:15 AM CDT 8:58 PM CDT
Moon 4:48 AM CDT (3/27) 4:04 PM CDT (3/27)
Length of Visible Light 13h 26m
Length of Day
12h 29m
Waning Crescent, 13% of the Moon is Illuminated
Mar 27
Waning Crescent
Mar 30
New
Apr 7
First Quarter
Apr 15
Full
Apr 22
Last Quarter

Hourly Weather History & Observations

Time (CDT) Temp. Windchill Dew Point Humidity Pressure Visibility Wind Dir Wind Speed Gust Speed Precip Events Conditions
12:15 AM 39.2 °F 30.2 °F 21.2 °F 49% 29.81 in 10.0 mi South 17.3 mph 25.3 mph N/A   Overcast
12:35 AM 39.2 °F 30.2 °F 21.2 °F 49% 29.80 in 10.0 mi South 17.3 mph 24.2 mph N/A   Overcast
12:50 AM 41.0 °F 32.5 °F 21.2 °F 45% 29.80 in 10.0 mi South 17.3 mph 24.2 mph N/A   Overcast
1:15 AM 41.0 °F 32.5 °F 21.2 °F 45% 29.80 in 10.0 mi South 17.3 mph 25.3 mph N/A   Overcast
1:35 AM 41.0 °F 32.2 °F 21.2 °F 45% 29.79 in 10.0 mi South 18.4 mph 25.3 mph N/A   Overcast
1:55 AM 41.0 °F 32.2 °F 21.2 °F 45% 29.78 in 10.0 mi South 18.4 mph 25.3 mph N/A   Overcast
2:15 AM 41.0 °F 32.8 °F 23.0 °F 49% 29.78 in 10.0 mi South 16.1 mph 23.0 mph N/A   Overcast
2:35 AM 41.0 °F 34.3 °F 23.0 °F 49% 29.77 in 10.0 mi South 11.5 mph 24.2 mph N/A   Overcast
2:55 AM 39.2 °F 30.8 °F 23.0 °F 52% 29.77 in 10.0 mi South 15.0 mph - N/A   Overcast
3:15 AM 39.2 °F 31.2 °F 23.0 °F 52% 29.76 in 10.0 mi South 13.8 mph 18.4 mph N/A   Overcast
3:35 AM 39.2 °F 29.8 °F 24.8 °F 56% 29.75 in 10.0 mi South 18.4 mph - N/A   Overcast
3:55 AM 37.4 °F 26.9 °F 30.2 °F 75% 29.75 in 7.0 mi South 20.7 mph 28.8 mph N/A Snow Light Snow
4:15 AM 33.8 °F 24.8 °F 32.0 °F 93% 29.74 in 4.0 mi South 12.7 mph - N/A Snow Light Snow
4:35 AM 33.8 °F 25.3 °F 32.0 °F 93% 29.73 in 4.0 mi SSE 11.5 mph - N/A Snow Light Snow
4:55 AM 33.8 °F 24.8 °F 32.0 °F 93% 29.73 in 5.0 mi SSE 12.7 mph 19.6 mph N/A   Overcast
5:15 AM 33.8 °F 24.8 °F 32.0 °F 93% 29.72 in 5.0 mi SSE 12.7 mph - N/A   Overcast
5:35 AM 35.6 °F 27.1 °F 32.0 °F 87% 29.71 in 5.0 mi SSE 12.7 mph - N/A   Overcast
5:55 AM 35.6 °F 27.5 °F 32.0 °F 87% 29.70 in 3.0 mi SSE 11.5 mph - N/A   Overcast
6:15 AM 35.6 °F 27.5 °F 33.8 °F 93% 29.70 in 3.0 mi SSE 11.5 mph - N/A   Overcast
6:35 AM 35.6 °F 26.6 °F 33.8 °F 93% 29.70 in 4.0 mi SSE 13.8 mph 20.7 mph N/A   Overcast
6:55 AM 35.6 °F 27.1 °F 33.8 °F 93% 29.69 in 4.0 mi SSE 12.7 mph - N/A   Overcast
7:15 AM 35.6 °F 27.5 °F 33.8 °F 93% 29.69 in 3.0 mi SSE 11.5 mph 19.6 mph N/A   Overcast
7:35 AM 35.6 °F 26.2 °F 33.8 °F 93% 29.68 in 3.0 mi SSE 15.0 mph 20.7 mph N/A   Overcast
7:55 AM 35.6 °F 26.6 °F 33.8 °F 93% 29.68 in 3.0 mi SSE 13.8 mph - N/A   Overcast
8:15 AM 35.6 °F 27.1 °F 33.8 °F 93% 29.68 in 3.0 mi SSE 12.7 mph 19.6 mph N/A   Overcast
8:35 AM 35.6 °F 26.2 °F 33.8 °F 93% 29.67 in 2.0 mi SSE 15.0 mph 19.6 mph N/A Rain Light Rain
8:55 AM 35.6 °F 26.6 °F 33.8 °F 93% 29.66 in 2.0 mi SSE 13.8 mph - N/A   Overcast
9:15 AM 35.6 °F 27.1 °F 33.8 °F 93% 29.65 in 1.8 mi SSE 12.7 mph 19.6 mph N/A Rain Light Rain
9:35 AM 35.6 °F 26.2 °F 35.6 °F 100% 29.65 in 2.0 mi SSE 15.0 mph 20.7 mph N/A Rain Light Rain
9:55 AM 37.4 °F 28.5 °F 35.6 °F 93% 29.64 in 2.0 mi SSE 15.0 mph 20.7 mph N/A Rain Light Rain
10:15 AM 37.4 °F 28.5 °F 35.6 °F 93% 29.63 in 3.0 mi SSE 15.0 mph 20.7 mph N/A Rain Light Rain
10:35 AM 37.4 °F 28.2 °F 35.6 °F 93% 29.62 in 4.0 mi SSE 16.1 mph - N/A Snow Light Snow
10:55 AM 37.4 °F 28.9 °F 35.6 °F 93% 29.62 in 3.0 mi SSE 13.8 mph - N/A Rain Light Rain
11:15 AM 37.4 °F 28.2 °F 35.6 °F 93% 29.60 in 1.8 mi SSE 16.1 mph - N/A Rain Light Rain
11:35 AM 37.4 °F 29.3 °F 35.6 °F 93% 29.59 in 2.5 mi SSE 12.7 mph - N/A Rain Light Rain
11:55 AM 37.4 °F 29.3 °F 35.6 °F 93% 29.58 in 4.0 mi SE 12.7 mph 18.4 mph N/A   Overcast
12:15 PM 37.4 °F 29.3 °F 35.6 °F 93% 29.58 in 4.0 mi SSE 12.7 mph - N/A   Overcast
12:35 PM 37.4 °F 29.8 °F 35.6 °F 93% 29.57 in 1.5 mi SE 11.5 mph - N/A Rain Light Rain
12:55 PM 37.4 °F 29.8 °F 35.6 °F 93% 29.55 in 1.2 mi SE 11.5 mph - N/A Rain Light Rain
1:15 PM 37.4 °F 28.9 °F 35.6 °F 93% 29.53 in 1.0 mi SE 13.8 mph - N/A Rain Light Rain
1:30 PM 37.4 °F 28.9 °F 35.6 °F 93% 29.53 in 1.8 mi SE 13.8 mph 19.6 mph N/A Rain Light Rain
2:55 PM 41.0 °F 33.5 °F 37.4 °F 87% 29.48 in 1.5 mi SSE 13.8 mph - N/A Rain Light Rain
3:15 PM 41.0 °F 33.9 °F 37.4 °F 87% 29.48 in 1.5 mi SSE 12.7 mph - N/A Rain Light Rain
3:35 PM 41.0 °F 33.5 °F 37.4 °F 87% 29.46 in 1.5 mi SSE 13.8 mph - 0.01 in Rain Light Rain
3:55 PM 41.0 °F 32.8 °F 39.2 °F 93% 29.45 in 1.5 mi SSE 16.1 mph - 0.01 in Rain Light Rain
4:15 PM 41.0 °F 33.1 °F 39.2 °F 93% 29.44 in 1.5 mi SSE 15.0 mph 19.6 mph N/A Rain Light Rain
4:35 PM 41.0 °F 33.5 °F 39.2 °F 93% 29.42 in 1.8 mi SSE 13.8 mph - 0.02 in Rain Rain
4:55 PM 42.8 °F 35.1 °F 41.0 °F 93% 29.42 in 2.0 mi SSE 16.1 mph - 0.05 in Rain Light Rain
5:15 PM 42.8 °F 37.0 °F 41.0 °F 93% 29.41 in 3.0 mi SSE 10.4 mph 19.6 mph N/A Rain Light Rain
5:35 PM 42.8 °F 35.8 °F 41.0 °F 93% 29.39 in 3.0 mi SE 13.8 mph - N/A Rain Rain
5:55 PM 42.8 °F 35.8 °F 41.0 °F 93% 29.38 in 3.0 mi SE 13.8 mph - N/A Rain Light Rain
6:15 PM 42.8 °F 36.2 °F 41.0 °F 93% 29.37 in 4.0 mi SSE 12.7 mph - N/A   Overcast
6:35 PM 42.8 °F 37.5 °F 41.0 °F 93% 29.38 in 4.0 mi SSE 9.2 mph - N/A   Overcast
6:55 PM 42.8 °F 38.0 °F 41.0 °F 93% 29.36 in 3.0 mi SE 8.1 mph - N/A   Overcast
7:15 PM 42.8 °F 39.3 °F 41.0 °F 93% 29.38 in 5.0 mi SSW 5.8 mph - N/A   Overcast
7:35 PM 44.6 °F 37.8 °F 41.0 °F 87% 29.35 in 5.0 mi SE 15.0 mph - 0.01 in Rain Rain
7:55 PM 44.6 °F 39.2 °F 42.8 °F 93% 29.36 in 2.5 mi SSE 10.4 mph 17.3 mph 0.07 in Rain Heavy Rain
8:15 PM 44.6 °F 38.1 °F 42.8 °F 93% 29.36 in 4.0 mi SSE 13.8 mph 18.4 mph 0.01 in Rain Light Rain
8:35 PM 46.4 °F 41.1 °F 44.6 °F 93% 29.35 in 4.0 mi SSE 11.5 mph 20.7 mph 0.04 in Rain Rain
8:55 PM 46.4 °F 41.5 °F 44.6 °F 93% 29.35 in 7.0 mi South 10.4 mph - 0.04 in   Overcast
9:15 PM 46.4 °F 42.4 °F 44.6 °F 93% 29.36 in 7.0 mi South 8.1 mph - N/A   Overcast
9:35 PM 46.4 °F 42.9 °F 42.8 °F 87% 29.36 in 5.0 mi SSE 6.9 mph - N/A   Overcast
9:55 PM 44.6 °F 41.4 °F 42.8 °F 93% 29.38 in 3.0 mi NNW 5.8 mph - N/A   Overcast
10:15 PM 46.4 °F 44.3 °F 42.8 °F 87% 29.38 in 4.0 mi NW 4.6 mph - N/A Rain Rain
10:35 PM 44.6 °F 40.2 °F 42.8 °F 93% 29.38 in 4.0 mi North 8.1 mph - 0.02 in Rain Rain
10:55 PM 42.8 °F 37.5 °F 41.0 °F 93% 29.38 in 3.0 mi NNE 9.2 mph - 0.05 in Rain Rain
11:15 PM 42.8 °F 38.0 °F 41.0 °F 93% 29.38 in 4.0 mi NNE 8.1 mph - N/A Rain Light Rain
11:35 PM 42.8 °F 37.5 °F 41.0 °F 93% 29.39 in 2.5 mi North 9.2 mph - N/A Rain Rain
11:55 PM 42.8 °F 36.6 °F 41.0 °F 93% 29.39 in 3.0 mi North 11.5 mph 18.4 mph 0.01 in Rain Light Rain